Newport, Rhode Island, United States (02840)
Lat: 41.49N, Lon: 71.31W
Wx Zone: RIZ007
Local Info
Past Weather Observations for Today

NOTE: This archive is for the closest National Weather Service station to Newport. Information may differ from the station used for current weather conditions.

Click here for Long-term Archive

Time Weather Temperature Dewpoint Humidity Pressure Winds Precip Visibility
18:44
Overcast
Light Snow
21°F / -6°C 19°F / -7°C 93% 30.18 in
(1022 mb)
NNW 6.9 mph
(NNW 11 kph)
0.01 in
(0.25 mm)
3SM
18:21
Overcast
Light Snow
21°F / -6°C 19°F / -7°C 93% 30.15 in
(1021 mb)
NNW 6.9 mph
(NNW 11 kph)
0.00 in
(0.00 mm)
2 1/2SM
18:12
Overcast
Light Snow
21°F / -6°C 19°F / -7°C 93% 30.15 in
(1021 mb)
NNW 6.9 mph
(NNW 11 kph)
0.00 in
(0.00 mm)
2SM
17:53
Overcast
Light Snow
21°F / -6°C 19°F / -7°C 93% 30.15 in
(1021 mb)
N 4.6 mph
(N 7 kph)
0.01 in
(0.25 mm)
1 3/4SM
17:23
Overcast
Light Snow
23°F / -5°C 19°F / -7°C 86% 30.12 in
(1020 mb)
N 5.8 mph
(N 9 kph)
0.00 in
(0.00 mm)
1 3/4SM
17:06
Overcast
Light Snow
23°F / -5°C 19°F / -7°C 86% 30.12 in
(1020 mb)
N 5.8 mph
(N 9 kph)
0.00 in
(0.00 mm)
3SM
16:53
Overcast
Light Snow
23°F / -5°C 19°F / -7°C 86% 30.12 in
(1020 mb)
N 5.8 mph
(N 9 kph)
0.01 in
(0.25 mm)
2SM
16:35
Overcast
Light Snow
23°F / -5°C 19°F / -7°C 86% 30.12 in
(1020 mb)
NNW 5.8 mph
(NNW 9 kph)
0.00 in
(0.00 mm)
2 1/2SM
16:08
Obscured
Light Snow
23°F / -5°C 21°F / -6°C 93% 30.12 in
(1020 mb)
NW 5.8 mph
(NW 9 kph)
0.00 in
(0.00 mm)
1SM
15:53
Obscured
Light Snow
25°F / -4°C 21°F / -6°C 86% 30.12 in
(1020 mb)
NW 8.1 mph
(NW 13 kph)
0.02 in
(0.51 mm)
3/4SM
15:35
Overcast
Light Snow
23°F / -5°C 21°F / -6°C 93% 30.09 in
(1019 mb)
NNW 6.9 mph
(NNW 11 kph)
0.01 in
(0.25 mm)
1 1/4SM
15:17
Obscured
Snow
25°F / -4°C 21°F / -6°C 86% 30.12 in
(1020 mb)
NW 6.9 mph
(NW 11 kph)
0.01 in
(0.25 mm)
1/2SM
15:04
Obscured
Light Snow
25°F / -4°C 21°F / -6°C 86% 30.12 in
(1020 mb)
NNW 6.9 mph
(NNW 11 kph)
0.00 in
(0.00 mm)
1SM
14:53
Obscured
Light Snow
25°F / -4°C 21°F / -6°C 86% 30.09 in
(1019 mb)
N 5.8 mph
(N 9 kph)
0.03 in
(0.76 mm)
3/4SM
14:21
Obscured
Light Snow
23°F / -5°C 19°F / -7°C 86% 30.06 in
(1018 mb)
N 12.7 mph
(N 20 kph)
0.01 in
(0.25 mm)
3/4SM
13:53
Obscured
Snow
25°F / -4°C 21°F / -6°C 86% 30.09 in
(1019 mb)
NNE 9.2 mph
(NNE 15 kph)
0.05 in
(1.27 mm)
1/2SM
13:07
Obscured
Snow
25°F / -4°C 21°F / -6°C 86% 30.09 in
(1019 mb)
N 11.5 mph
(N 19 kph)
0.02 in
(0.51 mm)
1/4SM
12:53
Overcast
Snow
25°F / -4°C 21°F / -6°C 86% 30.09 in
(1019 mb)
N 10.4 mph
(N 17 kph)
0.02 in
(0.51 mm)
1/2SM
12:31
Overcast
Light Snow
27°F / -3°C 23°F / -5°C 86% 30.06 in
(1018 mb)
NNW 9.2 mph
(NNW 15 kph)
0.01 in
(0.25 mm)
3/4SM
12:03
Obscured
Snow
27°F / -3°C 23°F / -5°C 86% 30.04 in
(1017 mb)
NNW 10.4 mph
(NNW 17 kph)
0.00 in
(0.00 mm)
1/2SM
11:53
Obscured
Snow
27°F / -3°C 25°F / -4°C 93% 30.06 in
(1018 mb)
NW 8.1 mph
(NW 13 kph)
0.03 in
(0.76 mm)
1/2SM
11:31
Obscured
Snow
27°F / -3°C 23°F / -5°C 86% 30.06 in
(1018 mb)
NW 12.7 mph
(NW 20 kph)
0.02 in
(0.51 mm)
1/2SM
11:22
Overcast
Snow
25°F / -4°C 23°F / -5°C 93% 30.06 in
(1018 mb)
NW 13.8 mph
(NW 22 kph)
0.01 in
(0.25 mm)
1/2SM
11:13
Overcast
Snow
27°F / -3°C 25°F / -4°C 93% 30.06 in
(1018 mb)
NW 10.4 mph
(NW 17 kph)
0.01 in
(0.25 mm)
1/2SM
10:53
Overcast
Snow
27°F / -3°C 27°F / -3°C 100% 30.06 in
(1018 mb)
NNW 9.2 mph
(NNW 15 kph)
0.02 in
(0.51 mm)
1/2SM
10:44
Overcast
Light Snow
27°F / -3°C 25°F / -4°C 93% 30.09 in
(1019 mb)
NW 8.1 mph
(NW 13 kph)
0.02 in
(0.51 mm)
3/4SM
10:27
Overcast
Light Snow
27°F / -3°C 25°F / -4°C 93% 30.06 in
(1018 mb)
NNW 12.7 mph
(NNW 20 kph)
0.01 in
(0.25 mm)
1SM
10:14
Overcast
Light Snow
27°F / -3°C 25°F / -4°C 93% 30.06 in
(1018 mb)
N 12.7 mph
(N 20 kph)
0.01 in
(0.25 mm)
3/4SM
09:53
Overcast
Light Snow
28°F / -2°C 27°F / -3°C 93% 30.06 in
(1018 mb)
NNW 11.5 mph
(NNW 19 kph)
0.02 in
(0.51 mm)
3/4SM
09:51
Overcast
Snow
28°F / -2°C 28°F / -2°C 100% 30.06 in
(1018 mb)
NNW 12.7 mph
(NNW 20 kph)
0.02 in
(0.51 mm)
1/2SM
09:12
Overcast
Light Snow
30°F / -1°C 28°F / -2°C 93% 30.04 in
(1017 mb)
NW 9.2 mph
(NW 15 kph)
0.01 in
(0.25 mm)
3/4SM
08:53
Overcast
Light Snow
30°F / -1°C 28°F / -2°C 93% 30.04 in
(1017 mb)
NW 8.1 mph
(NW 13 kph)
0.03 in
(0.76 mm)
3/4SM
08:50
Overcast
Light Snow
30°F / -1°C 28°F / -2°C 93% 30.04 in
(1017 mb)
NNW 6.9 mph
(NNW 11 kph)
0.03 in
(0.76 mm)
1SM
08:43
Overcast
Light Snow
30°F / -1°C 28°F / -2°C 93% 30.04 in
(1017 mb)
NNW 6.9 mph
(NNW 11 kph)
0.02 in
(0.51 mm)
1SM
08:37
Overcast
Light Snow
30°F / -1°C 28°F / -2°C 93% 30.04 in
(1017 mb)
NW 8.1 mph
(NW 13 kph)
0.02 in
(0.51 mm)
3/4SM
08:05
Overcast
Light Snow
30°F / -1°C 28°F / -2°C 93% 30.01 in
(1016 mb)
NNW 6.9 mph
(NNW 11 kph)
0.00 in
(0.00 mm)
3/4SM
07:53
Overcast
Light Snow
30°F / -1°C 28°F / -2°C 93% 30.01 in
(1016 mb)
NNW 8.1 mph
(NNW 13 kph)
0.04 in
(1.02 mm)
3/4SM
07:48
Overcast
Light Snow
30°F / -1°C 28°F / -2°C 93% 30.01 in
(1016 mb)
NNW 8.1 mph
(NNW 13 kph)
0.03 in
(0.76 mm)
1SM
07:03
Overcast
Light Snow
30°F / -1°C 28°F / -2°C 93% 30.01 in
(1016 mb)
NW 8.1 mph
(NW 13 kph)
0.01 in
(0.25 mm)
3/4SM
06:53
Overcast
Light Snow
30°F / -1°C 28°F / -2°C 93% 29.98 in
(1015 mb)
NW 9.2 mph
(NW 15 kph)
0.03 in
(0.76 mm)
1SM
06:40
Overcast
Light Snow
30°F / -1°C 30°F / -1°C 100% 29.98 in
(1015 mb)
NW 6.9 mph
(NW 11 kph)
0.03 in
(0.76 mm)
3/4SM
06:26
Overcast
Light Snow
30°F / -1°C 30°F / -1°C 100% 29.98 in
(1015 mb)
NW 9.2 mph
(NW 15 kph)
0.02 in
(0.51 mm)
1SM
06:21
Obscured
Light Snow
30°F / -1°C 30°F / -1°C 100% 29.98 in
(1015 mb)
NW 9.2 mph
(NW 15 kph)
0.02 in
(0.51 mm)
3/4SM
06:14
Overcast
Light Snow
30°F / -1°C 30°F / -1°C 100% 29.98 in
(1015 mb)
NW 9.2 mph
(NW 15 kph)
0.02 in
(0.51 mm)
3/4SM
05:53
Overcast
Light Snow
30°F / -1°C 30°F / -1°C 100% 29.98 in
(1015 mb)
NW 9.2 mph
(NW 15 kph)
0.03 in
(0.76 mm)
1 1/4SM
05:44
Overcast
Light Snow
30°F / -1°C 30°F / -1°C 100% 29.98 in
(1015 mb)
NW 10.4 mph
(NW 17 kph)
0.03 in
(0.76 mm)
1SM
05:24
Overcast
Light Snow
32°F / 0°C 30°F / -1°C 93% 29.98 in
(1015 mb)
NW 11.5 mph
(NW 19 kph)
0.02 in
(0.51 mm)
1 1/4SM
05:17
Overcast
Light Snow
32°F / 0°C 30°F / -1°C 93% 29.95 in
(1014 mb)
NW 6.9 mph
(NW 11 kph)
0.01 in
(0.25 mm)
1 1/2SM
04:53
Overcast
Light Snow
32°F / 0°C 30°F / -1°C 93% 29.92 in
(1013 mb)
NNW 6.9 mph
(NNW 11 kph)
0.02 in
(0.51 mm)
2SM
04:42
Overcast
Light Snow
32°F / 0°C 30°F / -1°C 93% 29.92 in
(1013 mb)
NNW 8.1 mph
(NNW 13 kph)
0.02 in
(0.51 mm)
2SM
04:15
Overcast
Light Snow
34°F / 1°C 30°F / -1°C 87% 29.92 in
(1013 mb)
N 6.9 mph
(N 11 kph)
0.01 in
(0.25 mm)
2 1/2SM
04:00
Overcast
Light Snow
34°F / 1°C 32°F / 0°C 93% 29.92 in
(1013 mb)
NNW 8.1 mph
(NNW 13 kph)
0.00 in
(0.00 mm)
6SM
03:53
Overcast
Light Snow
34°F / 1°C 32°F / 0°C 93% 29.92 in
(1013 mb)
NW 9.2 mph
(NW 15 kph)
0.02 in
(0.51 mm)
7SM
03:43
Overcast
Light Rain
34°F / 1°C 32°F / 0°C 93% 29.89 in
(1012 mb)
NW 8.1 mph
(NW 13 kph)
0.01 in
(0.25 mm)
8SM
03:00
Overcast
Light Rain
36°F / 2°C 36°F / 2°C 100% 29.86 in
(1011 mb)
NW 4.6 mph
(NW 7 kph)
0.00 in
(0.00 mm)
4SM
02:53
Overcast
Light Rain
36°F / 2°C 34°F / 1°C 93% 29.86 in
(1011 mb)
WNW 4.6 mph
(WNW 7 kph)
0.02 in
(0.51 mm)
2 1/2SM
02:36
Overcast
Light Rain
36°F / 2°C 34°F / 1°C 93% 29.86 in
(1011 mb)
Calm 0.01 in
(0.25 mm)
2SM
02:25
Overcast
Light Rain
36°F / 2°C 36°F / 2°C 100% 29.86 in
(1011 mb)
Calm 0.01 in
(0.25 mm)
1 3/4SM
02:17
Overcast
Light Rain
36°F / 2°C 36°F / 2°C 100% 29.86 in
(1011 mb)
Calm 0.01 in
(0.25 mm)
2SM
01:53
Overcast
Light Rain
36°F / 2°C 36°F / 2°C 100% 29.86 in
(1011 mb)
Calm 0.01 in
(0.25 mm)
3SM
00:53
Overcast
Light Rain
37°F / 3°C 36°F / 2°C 93% 29.86 in
(1011 mb)
Calm 0.02 in
(0.51 mm)
6SM
Time Weather Temperature Dewpoint Humidity Pressure Winds Precip Visibility


Weather for websites

WeatherForYou.com, LLC is not responsible for any damages or problems caused by this service. Current weather conditions are obtained from the closest station including government and personal stations which may have varying degrees of accuracy. Weather forecasts are derived from the NOAA NDFD. Like all things, this site belongs to Jesus Christ... He just trusts me to maintain it. If you have any questions or comments email webmaster@weatherforyou.com

Copyright © 2015, WeatherForYou.com LLC. All rights reserved.